Weather Roundup
Issued by NWS Corpus Christi, TX

Home | Current Version | Previous Version | Text Only | Print | Product List | Glossary Off
Versions: 1 2 3 4 5 6 7 8 9 10 11 12 13 14 15 16 17 18 19 20 21 22 23 24 25 26 27 28 29 30 31 32 33 34 35 36 37 38 39 40 41 42 43 44 45 46 47 48 49 50

000
ASUS44 KCRP 011910
HRRCRP

SOUTH TEXAS REGIONAL WEATHER ROUNDUP
NATIONAL WEATHER SERVICE CORPUS CHRISTI TX
200 PM CDT WED JUL 01 2015


TXZ229>244-012000-
...CORPUS CHRISTI AREA OBSERVATIONS...

CITY           SKY/WX    TMP DP  RH WIND       PRES   REMARKS
CORPUS CHRISTI CLOUDY    76  72  87 S10       30.05F
NAS CORPUS CHR CLOUDY    77  73  87 S9        30.04F
ROCKPORT       CLOUDY    76  72  87 SW9       30.05F
KINGSVILLE NAS CLOUDY    76  75  97 SE3       30.05F
ALICE          CLOUDY    76  72  87 S14       30.04F
FALFURRIAS     CLOUDY    77  72  85 SE8       30.05S
$$

...VICTORIA AREA OBSERVATIONS...

CITY           SKY/WX    TMP DP  RH WIND       PRES   REMARKS
VICTORIA       TSTM      73  72  96 SW15      30.05F
BEEVILLE       LGT RAIN  76  74  94 S14G24    30.06F
PLEASANTON     LGT RAIN  73  70  92 S12G21    30.09S
SAN ANTONIO    HVY RAIN  77  70  79 S28G49    30.08R
$$

...LAREDO AREA OBSERVATIONS...

CITY           SKY/WX    TMP DP  RH WIND       PRES   REMARKS
LAREDO         CLOUDY    82  69  64 SE16      30.05S
COTULLA        LGT RAIN  78  71  79 S12G24    30.04F
DEL RIO        MOSUNNY   87  70  56 SE20      30.00F HX  92
MCALLEN        LGT RAIN  79  70  74 S15G22    30.05F
HEBBRONVILLE     N/A     79  69  72 S18G29    30.05F
$$

...OTHER TEXAS OBSERVATIONS...

CITY           SKY/WX    TMP DP  RH WIND       PRES   REMARKS
BROWNSVILLE    CLOUDY    81  72  74 SW22G28   30.01F
HOUSTON        CLOUDY    77  74  90 SE8       30.06F
COL. STATION   PTSUNNY   80  71  74 S13       30.05F
AUSTIN         PTSUNNY   87  73  62 S14G20    30.03F HX  94
WACO           PTSUNNY   89  71  55 S14       30.03F HX  95
FORT WORTH     PTSUNNY   90  69  50 SW17G24   29.99F HX  94
WICHITA FALLS  MOSUNNY   92  69  47 SW16G24   29.94F HX  97
LUBBOCK        MOSUNNY   89  59  36 S13       30.03F
EL PASO        MOSUNNY   91  51  25 VRB6      30.06F
$$

...MARINE OBSERVATIONS...

STATION/POSITION TIME  SKY/WX   TEMP    WIND        PRES    VSBY  WAVE   SWELL
                                AIR SEA DIR/SP/G                  HT/PER HT/PER
                 (UTC)          (F)     (DEG/KT/KT) (MB)    (MI)  (FT/S) (FT/S)
PORT ARANSAS     1800            75 78  210/ 19/ 20 1018.9F
BUOY 90 E PORT A NOT AVBL
BUOY 45 SE BAFFI 1850            80 83  220/ 14/ 16 1017.2R         7/ 6   5/ 7
BUOY 200 E PT IS 1850            85 83  140/ 16/ 17 1018.1F         5/ 6   2/12
BUOY 15 E GALVES 1850            85 83  170/ 10/ 12 1017.6F         3/ 5   3/ 5
$$



USA.gov is the U.S. government's official web portal to all federal, state and local government web resources and services.